Flag Weather past 2 weeks in Jena, Thuringia, Germany

Now
34 °F

Partly sunny.


Feels Like: 26 °F
Forecast: 27 / 35 °F
Wind: 10 mph from East

Location: Erfurt-Bindersleben

Current Time: Nov 28, 2014 at 4:15:43 PM

Latest Report: Nov 28, 2014 at 3:50 PM


Visibility: N/A

Pressure: 29.95 "Hg

Humidity: 93%

Dew point: 32 °F

Location of JenaLocation

Historic Weather in Jena — Graph

°F

Jena temperature yesterday

Maximum temperature yesterday: 39 °F (at 11:20 AM)
Minimum temperature yesterday: 30 °F (at 7:20 AM)
Average temperature yesterday: 35 °F

Past Weeks' High & Low Weather Summary

 TemperatureHumidityPressure
High54 °F (Nov 14, 1:50 PM)100% (Nov 13, 3:20 PM)30.33 "Hg (Nov 13, 3:20 PM)
Low27 °F (Nov 26, 7:50 AM)71% (Nov 23, 11:20 PM)29.50 "Hg (Nov 16, 4:20 AM)
Average40 °F96%29.99 "Hg
* Reported Nov 13 3:20 PM — Nov 28 3:20 PM, Jena, Weather by CustomWeather, © 2014

Note: Actual official high and low records may vary slightly from our data, if they occured in-between our weather recording intervals... More about our weather records

Advertising

Jena weather history for previous 24 hours

 ConditionsComfort  
Time TempWeatherWind HumidityBarometerVisibility
3:20 PM
Nov 28
34 °FPartly sunny.12 mph93%29.95 "HgN/A
2:50 PM34 °FPartly sunny.10 mph93%29.95 "HgN/A
2:20 PM34 °FPartly sunny.13 mph93%29.95 "HgN/A
1:50 PM34 °FPartly sunny.12 mph93%29.95 "Hg6 mi
1:20 PM34 °FPartly sunny.10 mph93%29.95 "Hg5 mi
12:50 PM34 °FFog.9 mph93%29.95 "Hg2 mi
12:20 PM34 °FFog.10 mph93%29.95 "Hg2 mi
11:50 AM34 °FFog.7 mph93%29.98 "Hg2 mi
11:20 AM34 °FFog.9 mph100%29.98 "Hg2 mi
10:50 AM34 °FFog.8 mph100%29.98 "Hg1 mi
10:20 AM34 °FFog.8 mph100%29.98 "Hg1 mi
9:50 AM34 °FFog.6 mph100%29.95 "Hg1 mi
9:20 AM34 °FFog.7 mph100%29.95 "Hg1 mi
8:50 AM32 °FIce fog.5 mph100%29.95 "Hg1 mi
8:20 AM32 °FIce fog.6 mph100%29.95 "Hg1 mi
7:50 AM34 °FFog.8 mph100%29.92 "Hg2 mi
7:20 AM34 °FFog.7 mph100%29.92 "Hg4 mi
6:50 AM34 °FFog.7 mph100%29.92 "Hg5 mi
6:20 AM34 °FPassing clouds.6 mph100%29.92 "Hg4 mi
5:50 AM32 °FPassing clouds.6 mph100%29.92 "Hg4 mi
5:20 AM32 °FPassing clouds.6 mph100%29.89 "Hg4 mi
4:20 AM32 °FPartly cloudy.7 mph100%29.89 "Hg5 mi
3:50 AM34 °FPassing clouds.7 mph93%29.89 "Hg5 mi
3:20 AM34 °FPassing clouds.6 mph100%29.89 "Hg6 mi
2:50 AM34 °FPassing clouds.6 mph100%29.89 "HgN/A
2:20 AM36 °FPassing clouds.6 mph93%29.89 "HgN/A
1:50 AM36 °FPassing clouds.5 mph93%29.89 "HgN/A
1:20 AM36 °FPassing clouds.6 mph93%29.89 "HgN/A
12:50 AM36 °FPassing clouds.5 mph93%29.89 "HgN/A
12:20 AM36 °FPassing clouds.5 mph93%29.89 "HgN/A
11:50 PM
Nov 27
36 °FPassing clouds.5 mph93%29.89 "HgN/A
11:20 PM36 °FOvercast.6 mph93%29.89 "HgN/A
10:50 PM36 °FOvercast.6 mph93%29.89 "HgN/A
10:20 PM36 °FOvercast.6 mph93%29.89 "HgN/A
9:50 PM36 °FOvercast.6 mph93%29.89 "HgN/A
9:20 PM36 °FOvercast.7 mph93%29.89 "HgN/A
8:50 PM36 °FOvercast.7 mph93%29.89 "HgN/A
8:20 PM36 °FOvercast.7 mph93%29.86 "HgN/A
7:50 PM36 °FOvercast.8 mph93%29.86 "HgN/A
7:20 PM36 °FOvercast.8 mph93%29.86 "HgN/A
6:50 PM36 °FOvercast.8 mph93%29.86 "HgN/A
6:20 PM36 °FOvercast.8 mph93%29.86 "HgN/A
5:50 PM36 °FPassing clouds.7 mph87%29.86 "HgN/A
5:20 PM36 °FClear.7 mph87%29.86 "Hg10 mi
4:50 PM36 °FClear.7 mph87%29.86 "Hg10 mi
4:20 PM36 °FClear.6 mph87%29.86 "Hg10 mi
Weather by CustomWeather, © 2014

See weather overviewHow to use our weather pages